EW4380 Weather Reports


Display with metric or nautical units.
time (UTC)temp
F
wind
direction
speed
MPH
gust
MPH
rain 1hr
in
rain 24hr
in
rain mn
in
humidity
%
barometer
mb
20260504021558 70 144 2.0 5.0 0.00 0.00 0.00 60 1017.4
20260504020100 70 146 0.0 0.0 0.00 0.00 0.00 62 1017.2
20260504014605 70 146 0.0 0.0 0.00 0.00 0.00 60 1016.9
20260504013101 71 146 0.0 1.0 0.00 0.00 0.00 58 1016.9
20260504011558 72 146 0.0 2.0 0.00 0.00 0.00 55 1016.8
20260504010056 74 146 1.0 2.0 0.00 0.00 0.00 53 1016.7
20260504004555 75 146 0.0 4.0 0.00 0.00 0.00 50 1016.9
20260504003102 75 145 1.0 5.0 0.00 0.00 0.00 48 1016.8
20260504001606 76 155 2.0 7.0 0.00 0.00 0.00 46 1016.8
20260504000111 77 158 2.0 8.0 0.00 0.00 0.00 45 1016.7
20260503234550 78 173 4.0 10.0 0.00 0.00 0.00 44 1017.1
20260503233048 78 144 3.0 7.0 0.00 0.00 0.00 43 1017.3
20260503231548 78 184 7.0 12.0 0.00 0.00 0.00 40 1017.4
20260503230047 78 131 2.0 11.0 0.00 0.00 0.00 41 1017.5
20260503224547 79 182 5.0 10.0 0.00 0.00 0.00 42 1017.6
20260503223044 78 173 4.0 9.0 0.00 0.00 0.00 43 1017.6
20260503221551 78 130 4.0 11.0 0.00 0.00 0.00 45 1017.9
20260503220040 78 190 4.0 9.0 0.00 0.00 0.00 42 1018.3
20260503214537 78 174 3.0 23.0 0.00 0.00 0.00 44 1018.4
20260503213034 78 137 5.0 9.0 0.00 0.00 0.00 44 1018.8
20260503211532 78 127 5.0 9.0 0.00 0.00 0.00 45 1019.2
20260503210030 77 121 2.0 8.0 0.00 0.00 0.00 46 1019.3
20260503204530 77 159 2.0 7.0 0.00 0.00 0.00 45 1019.8
20260503203027 77 167 3.0 10.0 0.00 0.00 0.00 43 1020.2
20260503201523 77 188 3.0 10.0 0.00 0.00 0.00 42 1020.3
20260503200021 76 139 4.0 11.0 0.00 0.00 0.00 44 1020.6
20260503194519 77 190 2.0 11.0 0.00 0.00 0.00 44 1021.0
20260503193034 76 182 3.0 10.0 0.00 0.00 0.00 43 1021.4
20260503191515 76 192 4.0 10.0 0.00 0.00 0.00 45 1021.2
20260503190012 76 207 4.0 9.0 0.00 0.00 0.00 43 1021.5
20260503184520 76 155 5.0 10.0 0.00 0.00 0.00 48 1021.8
20260503183011 75 183 4.0 11.0 0.00 0.00 0.00 47 1021.9
20260503181507 75 159 3.0 9.0 0.00 0.00 0.00 47 1022.4
20260503180015 75 195 3.0 9.0 0.00 0.00 0.00 48 1022.5
20260503174506 74 179 4.0 10.0 0.00 0.00 0.00 50 1022.9
20260503173011 74 197 3.0 6.0 0.00 0.00 0.00 48 1023.1
20260503171600 74 195 3.0 9.0 0.00 0.00 0.00 52 1023.5
20260503090105 54 117 0.0 0.0 0.00 0.00 0.00 86 1021.6
20260503081552 55 117 0.0 0.0 0.00 0.00 0.00 86 1021.8
20260503071552 55 117 0.0 0.0 0.00 0.00 0.00 85 1022.5
20260503070103 56 117 0.0 0.0 0.00 0.00 0.00 85 1022.7
20260503054541 57 117 0.0 0.0 0.00 0.00 0.00 82 1022.9
20260503053035 58 117 0.0 0.0 0.00 0.00 0.00 81 1022.7
20260503051535 57 117 0.0 0.0 0.00 0.00 0.00 81 1022.7
20260503050032 58 117 0.0 0.0 0.00 0.00 0.00 81 1022.6
20260503044539 59 117 0.0 0.0 0.00 0.00 0.00 81 1022.6
20260503043030 59 117 0.0 0.0 0.00 0.00 0.00 81 1022.6
20260503041530 59 117 0.0 0.0 0.00 0.00 0.00 80 1022.5
20260503040031 60 117 0.0 0.0 0.00 0.00 0.00 80 1022.7
20260503034529 61 117 0.0 0.0 0.00 0.00 0.00 78 1022.4
20260503033029 61 117 0.0 0.0 0.00 0.00 0.00 74 1022.1
20260503031527 61 117 0.0 0.0 0.00 0.00 0.00 72 1021.9
20260503030026 61 117 0.0 0.0 0.00 0.00 0.00 73 1021.9
20260503024526 62 117 0.0 0.0 0.00 0.00 0.00 74 1021.7
20260503023025 63 117 0.0 0.0 0.00 0.00 0.00 74 1021.6